Regional Weather Roundup
Issued by NWS Wilmington, NC

Home | Current Version | Previous Version | Text Only | Print | Product List | Glossary On
Versions: 1 2 3 4 5 6 7 8 9 10 11 12 13 14 15 16 17 18 19 20 21 22 23 24 25 26 27
000
ASUS42 KILM 300613
RWRILM
RWRILM
REGIONAL HOURLY WEATHER ROUNDUP
NATIONAL WEATHER SERVICE WILMINGTON NC
200 AM EDT TUE MAY 30 2017

NOTE: "FAIR" INDICATES FEW OR NO CLOUDS BELOW 12,000 FEET WITH NO
SIGNIFICANT WEATHER AND/OR OBSTRUCTIONS TO VISIBILITY.

...............WFO WILMINGTON COUNTY WARNING AREA...............

......COASTAL NC AND SC COUNTIES......

CITY           SKY/WX    TMP DP  RH WIND       PRES   REMARKS
WILMINGTON     CLOUDY    71  70  96 CALM      30.03F
N MYRTLE BEACH MOCLDY    72  69  90 CALM      30.02F
MYRTLE BEACH   NOT AVBL

......INLAND NC AND SC COUNTIES.......

CITY           SKY/WX    TMP DP  RH WIND       PRES   REMARKS
LUMBERTON      CLOUDY    69  67  93 N3        30.02F
ELIZABETHTOWN  MOCLDY    69  69 100 CALM      30.03F
WHITEVILLE     CLOUDY    72  71  96 CALM      30.04R
FLORENCE       TSTM      70  70 100 W3        30.05R FOG
DARLINGTON     HVY RAIN  70  68  93 SE6       30.06R
KINGSTREE      FAIR      70  68  94 CALM      30.03F
HARTSVILLE     CLOUDY    68  68 100 SW3       30.07R
BENNETTSVILLE  MOCLDY    70  70 100 CALM      30.04F
CONWAY         FAIR      68  66  94 CALM      30.03S
GEORGETOWN     FAIR      70  70 100 CALM      30.04F
MARION         MOCLDY    70  68  94 CALM      30.03F

....................REST OF NORTH CAROLINA......................

.........EASTERN NC.........

CITY           SKY/WX    TMP DP  RH WIND       PRES   REMARKS
CAPE HATTERAS  CLOUDY    74  70  87 SE7       30.04S
JACKSONVILLE   LGT RAIN  70  68  93 SE5       30.03F
MOREHEAD CITY  MOCLDY    77  74  90 SW9       30.05R
KENANSVILLE    CLOUDY    70  68  94 CALM      30.03S
NEW BERN       TSTM      70  70 100 SE13G18   30.04S VSB 1
ELIZABETH CITY MOCLDY    73  71  93 SE14      30.03R

.........CENTRAL NC.........

CITY           SKY/WX    TMP DP  RH WIND       PRES   REMARKS
RALEIGH DURHAM CLOUDY    68  68 100 CALM      30.02F
ROCKY MOUNT    MOCLDY    69  69 100 CALM      30.01S
ROANOKE RAPIDS NOT AVBL
FAYETTEVILLE   CLOUDY    69  68  96 S5        30.02F
HOFFMAN        LGT RAIN  67  66  95 S3        30.03F

.........WESTERN NC.........

CITY           SKY/WX    TMP DP  RH WIND       PRES   REMARKS
CHARLOTTE      CLOUDY    69  65  86 S5        30.05S
GREENSBORO     CLOUDY    66  65  96 SW5       30.03S
HICKORY        NOT AVBL
BOONE          NOT AVBL
ASHEVILLE      NOT AVBL

.....................REST OF SOUTH CAROLINA.....................

.........EASTERN SC.........

CITY           SKY/WX    TMP DP  RH WIND       PRES   REMARKS
CHARLESTON     PTCLDY    75  70  84 CALM      30.04S
BEAUFORT MCAS  PTCLDY    78  74  87 W5        30.04S
HILTON HEAD    CLEAR     81  73  78 S8        30.04F

.........CENTRAL SC.........

CITY           SKY/WX    TMP DP  RH WIND       PRES   REMARKS
COLUMBIA       CLOUDY    70  68  93 CALM      30.04F
ORANGEBURG     CLOUDY    70  69  97 NW3       30.06R
SUMTER SHAW    LGT RAIN  70  68  94 CALM      30.03S

.........WESTERN SC.........

CITY           SKY/WX    TMP DP  RH WIND       PRES   REMARKS
GREENVILLE     NOT AVBL
ROCK HILL      CLOUDY    68  65  90 CALM      30.05F
ANDERSON       LGT RAIN  70  68  93 SW3       30.05F
CLEMSON        NOT AVBL
GREENWOOD      CLOUDY    68  67  96 SW6       30.07S


...................COASTAL AND OFFSHORE REPORTS..................

................LOCAL PIERS AND NC RESERVE................


STATION/POSITION TIME  SKY/WX   TEMP    WIND        PRES    VSBY
                                AIR SEA DIR/SP/G
                 (UTC)          (F)     (DEG/KT/KT) (MB)    (MI)
JOHNY MRCER PIER 0548                   320/  5/  6   N/A
NC RESRV MASNBRO 0445            77     270/  3     1018.0
OCEAN CREST PIER NOT AVBL
SPRINGMAID  PIER 0530                               1016.2F


................COASTAL AND OFFSHORE BUOYS................


STATION/POSITION TIME  SKY/WX   TEMP    WIND        PRES    VSBY
                                AIR SEA DIR/SP/G
                 (UTC)          (F)     (DEG/KT/KT) (MB)    (MI)
DIMNDSHOAL 41025 0450            77 76  150/  4/  6 1017.4
WVE H/P(F/S)=  2/10 SWL H/P/D(F/S/D)=  2/10

CAPE LOOKOUT     0600            76     240/  7/ 11 1017.3R
ONSLOW BAY 41036 NOT AVBL
ONSLOW BAY 41064 0508            78 78  250/ 10/ 14 1017.3R
ONSLOW BAY 41159 0543               77                N/A
WVE H/P(F/S)=  3/ 5

MASNBO INL 41110 0559               76                N/A
WVE H/P(F/S)=  2/ 5

WILM HARBR 41108 0547               76                N/A
WVE H/P(F/S)=  2/ 5

27SE WRITB 41037 0508            76 77  230/ 10/ 14 1016.8R
FRYING PAN 41013 0510            76 76  220/  8/ 10 1016.8
SUNST NRSH 41024 0508            76 78  330/  4/  6 1016.5F
CAPRS NRSH 41029 0508            82 79  270/ 10/ 16 1017.1R
EDISTO     41004 0510            78 77  200/  8/ 10 1016.9


..........OFFSHORE BUOYS BEYOND 100 NM OFFSHORE...........
.....IN A TRIANGLE---HAT TO BERMUDA TO BAHAMAS TO HAT.....


STATION/POSITION TIME  SKY/WX   TEMP    WIND        PRES    VSBY
                                AIR SEA DIR/SP/G
                 (UTC)          (F)     (DEG/KT/KT) (MB)    (MI)
150E HAT   41001 0510            75 77   20/  8/ 10 1018.0
W BERMUDA  41048 0510            76 76  270/  8/ 10 1019.3
ATLANTIC S 41049 0450            77 78  230/  6/  8 1023.2
WVE H/P(F/S)=  3/ 8 SWL H/P/D(F/S/D)=  3/130/ 8

E BAHAMAS  41046 0510            80 81  100/ 12/ 16 1021.5
NE BAHAMAS 41047 0510            78 79  180/  6/  8 1021.9
120E CANVRL41010 0510            81 81  200/  8/ 10 1018.6

END




USA.gov is the U.S. government's official web portal to all federal, state and local government web resources and services.